Regional Weather Roundup
Issued by NWS

Home | Current Version | Previous Version | Graphics & Text | Print | Product List | Glossary On
Versions: 1 2 3 4 5 6 7 8 9 10 11 12 13 14 15 16 17 18 19 20 21 22 23 24 25 26 27 28 29 30 31 32 33 34 35 36 37 38 39 40 41 42 43 44 45 46 47 48 49 50
000
ASUS43 KOAX 010302
RWRNE

WEATHER ROUNDUP FOR NEBRASKA
NATIONAL WEATHER SERVICE OMAHA NE
1000 PM CDT TUE SEP 30 2014

NOTES: SATELLITE DATA IS BEING USED TO AUGMENT CLOUD COVER ABOVE
       12000 FEET.
       "FAIR" INDICATES FEW OR NO CLOUDS BELOW 12,000 FEET WITH NO
       SIGNIFICANT WEATHER AND/OR OBSTRUCTIONS TO VISIBILITY.

  * THESE STATIONS DO NOT REPORT WEATHER SUCH AS RAIN...SNOW OR FOG.

NEZ001>004-019>022-054>056-010400-
NEBRASKA PANHANDLE

CITY           SKY/WX    TMP DP  RH WIND       PRES   REMARKS
SCOTTSBLUFF    CLOUDY    61  42  49 W13       29.78R
ALLIANCE       MOCLDY    51  44  77 W9        29.76R
CHADRON        CLOUDY    55  50  83 S5        29.73R
KIMBALL        CLOUDY    58  41  54 W10       29.83R
SIDNEY         LGT RAIN  58  45  62 W9        29.83R
$$

NEZ057>060-069>072-079>082-010400-
SOUTHWEST NEBRASKA

CITY           SKY/WX    TMP DP  RH WIND       PRES   REMARKS
NORTH PLATTE   CLOUDY    61  49  64 W7        29.75R
IMPERIAL       MOCLDY    59  48  67 CALM      29.76R
LEXINGTON      MOCLDY    61  54  77 E3        29.74S
MCCOOK         MOCLDY    64  49  57 E3        29.73S
OGALLALA       MOCLDY    56  49  77 CALM      29.76R
$$

NEZ005>010-023>029-035>040-094-010400-
NORTH CENTRAL NEBRASKA

CITY           SKY/WX    TMP DP  RH WIND       PRES   REMARKS
VALENTINE      MOCLDY    52  45  77 S3        29.70R
AINSWORTH      MOCLDY    53  45  75 S5        29.71R
BROKEN BOW     MOCLDY    57  49  74 CALM      29.73R
O`NEILL        CLOUDY    66  62  86 SE7G16    29.73R
ORD            PTCLDY    61  57  87 E6        29.72R
THEDFORD       MOCLDY    60  47  61 CALM      29.74R
$$

NEZ041-046>049-061>064-073>077-083>087-010400-
SOUTH CENTRAL NEBRASKA

CITY           SKY/WX    TMP DP  RH WIND       PRES   REMARKS
GRAND ISLAND   MOCLDY    64  62  93 SE8       29.75S FOG
AURORA         PTCLDY    61  61 100 SE8       29.75S FOG
HASTINGS       FOG       63  60  90 SE9       29.74S VSB 1
HEBRON         CLOUDY    65  63  90 E8G16     29.74S
HOLDREGE       PTCLDY    58  55  88 CALM      29.75R
KEARNEY *      PTCLDY    59  55  88 E3        29.75R
YORK           CLOUDY    63  63 100 SE10      29.76S FOG
$$

NEZ011>018-030>034-042>045-010400-
NORTHEAST NEBRASKA

CITY           SKY/WX    TMP DP  RH WIND       PRES   REMARKS
NORFOLK        MOCLDY    63  61  93 SE9       29.75S
ALBION         PTCLDY    62  59  91 SE6       29.75S FOG
BLAIR          CLOUDY    65  63  91 E8        29.78S
COLUMBUS *     CLOUDY    61  57  88 E6        29.77S
FREMONT        PTCLDY    62  60  94 CALM      29.79R
TEKAMAH        CLOUDY    64  62  93 CALM      29.78R FOG
WAYNE          PTCLDY    62  60  94 SE6       29.77R
$$

NEZ050>053-065>068-078-088>093-010400-
SOUTHEAST NEBRASKA

CITY           SKY/WX    TMP DP  RH WIND       PRES   REMARKS
LINCOLN        RAIN      65  62  90 SE8       29.78R FOG
OMAHA EPPLEY   CLOUDY    66  62  87 SE9       29.78S
BEATRICE       TSTM      64  63  95 NE12G17   29.76F
FALLS CITY     CLOUDY    67  65  93 NW5       29.77R THUNDER
NEBRASKA CITY  CLOUDY    64  64 100 NE10      29.79F
PLATTSMOUTH    TSTM      64  63  94 E6        29.79R
$$

NEZ044-045-051>053-067-010400-
OMAHA AREA

CITY           SKY/WX    TMP DP  RH WIND       PRES   REMARKS
OMAHA EPPLEY   CLOUDY    66  62  87 SE9       29.78S
BLAIR          CLOUDY    65  63  91 E8        29.78S
FREMONT        PTCLDY    62  60  94 CALM      29.79R
MILLARD        LGT RAIN  65  64  94 SE5       29.77S
OFFUTT AFB     RAIN      65  65 100 E10       29.78R
PLATTSMOUTH    TSTM      64  63  94 E6        29.79R
WAHOO          MOCLDY    62  60  91 SE3       29.78R
$$


USA.gov is the U.S. government's official web portal to all federal, state and local government web resources and services.